Regional Weather Roundup
Issued by NWS Little Rock, AR

Home | Current Version | Previous Version | Graphics & Text | Print | Product List | Glossary On
Versions: 1 2 3 4 5 6 7 8 9 10 11 12 13 14 15 16 17 18 19 20 21 22 23 24 25 26 27 28 29 30 31 32 33 34 35 36 37 38 39 40 41 42 43 44 45 46 47 48 49 50
000
ASUS44 KLZK 251305
RWRLZK

WEATHER ROUNDUP FOR ARKANSAS
NATIONAL WEATHER SERVICE LITTLE ROCK AR
800 AM CDT SAT APR 25 2015

NOTE: "FAIR" INDICATES FEW OR NO CLOUDS BELOW 12,000 FEET WITH NO
SIGNIFICANT WEATHER AND/OR OBSTRUCTIONS TO VISIBILITY.

ARZ001-003-010-029-251400-
NORTHWEST ARKANSAS

CITY           SKY/WX    TMP DP  RH WIND       PRES   REMARKS
FAYETTEVILLE   SUNNY     62  56  80 SW17G23   29.60R
FORT SMITH     LGT RAIN  57  56  96 N3        29.62R VSB<1/4
HARRISON       SUNNY     64  54  69 SW16G29   29.57S
BENTONVILLE    MOSUNNY   61  54  77 SW14G22   29.59S
ROGERS         SUNNY     61  56  83 SW18G26   29.58S
SILOAM SPGS    SUNNY     61  52  72 SW15G23   29.60F
HIGHFILL       SUNNY     61  55  81 SW15G21   29.58R
SPRINGDALE     SUNNY     61  55  82 SW12G23   29.61R
$$

ARZ004-005-016-251400-
NORTH CENTRAL ARKANSAS

CITY           SKY/WX    TMP DP  RH WIND       PRES   REMARKS
BATESVILLE     CLOUDY    63  59  88 SE9       29.60F
FLIPPIN        SUNNY     63  57  82 SW7       29.56R
MTN HOME       SUNNY     62  58  86 SW8       29.57R
$$

ARZ040-041-251400-
WEST CENTRAL ARKANSAS

CITY           SKY/WX    TMP DP  RH WIND       PRES   REMARKS
MENA           MOSUNNY   64  61  88 W7        29.68S
MOUNT IDA      MOSUNNY   63  59  87 CALM      29.64R
$$

ARZ009-017-025-026-028-251400-
NORTHEAST ARKANSAS

CITY           SKY/WX    TMP DP  RH WIND       PRES   REMARKS
CORNING          N/A     63  63 100 S20G25    29.59F
JONESBORO      CLOUDY    61  61 100 SW16G26   29.63S FOG
NEWPORT        CLOUDY    63  63 100 S20G29    29.63F
WALNUT RIDGE   CLOUDY    63  57  82 S20       29.59F
BLYTHEVILLE    MOSUNNY   64  62  93 S12       29.63F
$$

ARZ022-023-033-042-044-251400-
CENTRAL ARKANSAS

CITY           SKY/WX    TMP DP  RH WIND       PRES   REMARKS
LITTLE ROCK    CLOUDY    65  60  84 SW12G21   29.67S
N LITTLE ROCK    N/A     62  62  98 SW10G22   29.67S
JACKSONVILLE   CLOUDY    64  62  93 S10       29.66R
SEARCY         CLOUDY    63  61  93 S10       29.66R
HOT SPRINGS    CLOUDY    64  60  87 SW7       29.69R
RUSSELLVILLE   SUNNY     63  60  90 CALM      29.63R
CLINTON        CLOUDY    63  61  94 SW6       29.63S
$$

ARZ036-251400-
EAST ARKANSAS

CITY           SKY/WX    TMP DP  RH WIND       PRES   REMARKS
WEST MEMPHIS   PTSUNNY   62  61  96 S16G23    29.67R
$$

ARZ050-053-066-070-073-251400-
SOUTHWEST ARKANSAS

CITY           SKY/WX    TMP DP  RH WIND       PRES   REMARKS
ARKADELPHIA    CLOUDY    63  63 100 CALM      29.69F FOG
CAMDEN         FOG       63  61  94 CALM      29.70S VSB 1/2
TEXARKANA      FOG       67  66  97 SW12      29.68F VSB 1/4
EL DORADO      FOG       66  65  96 SW6       29.71S VSB 3/4
DE QUEEN       PTSUNNY   64  62  93 CALM      29.68R FOG
$$

ARZ056-057-069-251400-
SOUTHEAST ARKANSAS

CITY           SKY/WX    TMP DP  RH WIND       PRES   REMARKS
PINE BLUFF     CLOUDY    64  62  93 SW8       29.70S
STUTTGART      CLOUDY    64  61  88 SW18G25   29.69R
MONTICELLO     CLOUDY    66  65  96 SW8       29.71F

$$




USA.gov is the U.S. government's official web portal to all federal, state and local government web resources and services.